Preview of NWS' New Version of Forecast
This preview is not operational and should not be used for support decisions.

Regional Weather Roundup (RWR)

Issued by National Weather Service (NWS)

                            
000
ASUS43 KTOP 241908
RWRKS 

WEATHER ROUNDUP FOR KANSAS
NATIONAL WEATHER SERVICE GOODLAND KS
200 PM CDT MON JUN 24 2019

NOTE:  "FAIR" INDICATES FEW OR NO CLOUDS BELOW 12,000 FEET WITH NO
SIGNIFICANT WEATHER AND/OR OBSTRUCTIONS TO VISIBILITY.

KSZ001>006-013>018-027>032-041>047-242000-
NORTHWEST KANSAS
  
CITY           SKY/WX    TMP DP  RH WIND       PRES   REMARKS
GOODLAND       MOSUNNY   81  44  27 W12G23    29.90F                  
HAYS           SUNNY     81  53  37 SW15G21   29.88F                  
HILL CITY      SUNNY     84  53  34 SW14G23   29.86F                  
RUSSELL        SUNNY     81  52  36 SW15G23   29.86F                  
$$

KSZ061>065-074>080-084>089-242000-
SOUTHWEST KANSAS
  
CITY           SKY/WX    TMP DP  RH WIND       PRES   REMARKS
DODGE CITY     SUNNY     81  54  39 SW17G24   29.94F                  
ELKHART        SUNNY     83  51  33 SW13G21   29.98F                  
GARDEN CITY    SUNNY     82  49  31 SW14G26   29.93F                  
GREAT BEND     SUNNY     79  56  45 SW14G22   29.90F                  
LIBERAL        SUNNY     82  49  31 SW13      29.97F                  
PRATT          SUNNY     80  52  37 W14G25    29.93F                  
$$

KSZ066>073-081>083-090>101-242000-
SOUTHEAST KANSAS
  
CITY           SKY/WX    TMP DP  RH WIND       PRES   REMARKS
CHANUTE        SUNNY     77  58  51 W12       29.92F                  
COFFEYVILLE    SUNNY     78  58  49 MISG      29.92S                  
HUTCHINSON     SUNNY     79  52  38 W9        29.91F                  
MEDICINE LODGE   N/A     81  53  37 W8        29.92F                  
NEWTON         SUNNY     76  58  53 SW14      29.93F                  
PARSONS        SUNNY     78  60  53 W7        29.94S                  
WICHITA INTL   SUNNY     78  55  44 VRB6      29.92F                  
WICHITA JABRA  SUNNY     77  55  46 SW8       29.92F                  
WICHITA MCCONL MOSUNNY   77  57  49 SW8       29.93F                  
WINFIELD       SUNNY     78  56  46 VRB5      29.94F                  
$$

KSZ007>012-019>026-033>040-048>060-102>105-242000-
NORTHEAST KANSAS
  
CITY           SKY/WX    TMP DP  RH WIND       PRES   REMARKS
CONCORDIA      SUNNY     79  54  41 SW13G22   29.86F                  
EMPORIA        SUNNY     76  58  53 SW10      29.91F                  
MANHATTAN      SUNNY     79  55  43 W10G17    29.87S                  
MARYSVILLE     MOSUNNY   77  55  47 W15       29.85S                  
OLATHE IND     SUNNY     77  56  48 W9        29.88S                  
OLATHE EXE     MOSUNNY   75  56  51 W10       29.87F                  
SALINA         SUNNY     78  56  46 SW13G20   29.89S                  
TOPEKA BILLARD SUNNY     78  55  44 W12G20    29.86S                  
TOPEKA FORBES  SUNNY     78  54  43 W9G21     29.87S                  
$$